TimeCST,TemperatureF,Dew PointF,Humidity,Sea Level PressureIn,VisibilityMPH,Wind Direction,Wind SpeedMPH,Gust SpeedMPH,PrecipitationIn,Events,Conditions,WindDirDegrees,DateUTC
12:15 AM,75.2,64.4,69,30.12,9.0,SE,13.8,-,N/A,,Clear,140,2012-11-23 06:15:00
12:35 AM,75.2,64.4,69,30.12,9.0,SE,13.8,-,N/A,,Clear,140,2012-11-23 06:35:00
12:55 AM,75.2,64.4,69,30.11,9.0,SE,15.0,-,N/A,,Clear,140,2012-11-23 06:55:00
1:15 AM,75.2,64.4,69,30.11,10.0,SE,15.0,-,N/A,,Clear,130,2012-11-23 07:15:00
1:35 AM,75.2,64.4,69,30.11,10.0,SE,12.7,-,N/A,,Clear,140,2012-11-23 07:35:00
1:55 AM,73.4,64.4,73,30.11,9.0,SE,12.7,-,N/A,,Clear,140,2012-11-23 07:55:00
2:15 AM,75.2,64.4,69,30.11,10.0,SE,12.7,-,N/A,,Mostly Cloudy,140,2012-11-23 08:15:00
2:35 AM,75.2,64.4,69,30.11,10.0,SE,11.5,-,N/A,,Overcast,140,2012-11-23 08:35:00
2:55 AM,75.2,64.4,69,30.11,9.0,SE,12.7,-,N/A,,Overcast,140,2012-11-23 08:55:00
3:15 AM,73.4,64.4,73,30.11,10.0,SE,13.8,-,N/A,,Overcast,130,2012-11-23 09:15:00
3:35 AM,73.4,64.4,73,30.11,9.0,SE,12.7,-,N/A,,Overcast,130,2012-11-23 09:35:00
3:55 AM,73.4,64.4,73,30.11,9.0,SE,12.7,-,N/A,,Overcast,130,2012-11-23 09:55:00
4:15 AM,73.4,64.4,73,30.12,5.0,SE,12.7,-,N/A,,Haze,130,2012-11-23 10:15:00
4:35 AM,73.4,64.4,73,30.12,10.0,SE,12.7,-,N/A,,Mostly Cloudy,130,2012-11-23 10:35:00
4:55 AM,73.4,64.4,73,30.12,10.0,SE,11.5,-,N/A,,Overcast,130,2012-11-23 10:55:00
5:15 AM,73.4,64.4,73,30.12,9.0,SE,10.4,-,N/A,,Overcast,130,2012-11-23 11:15:00
5:35 AM,73.4,64.4,73,30.13,9.0,ESE,10.4,-,N/A,,Mostly Cloudy,110,2012-11-23 11:35:00
5:55 AM,73.4,64.4,73,30.13,9.0,ESE,10.4,-,N/A,,Partly Cloudy,110,2012-11-23 11:55:00
6:35 AM,73.4,64.4,73,30.15,6.0,ESE,10.4,-,N/A,,Haze,120,2012-11-23 12:35:00
6:55 AM,73.4,64.4,73,30.16,9.0,ESE,10.4,-,N/A,,Overcast,110,2012-11-23 12:55:00
7:15 AM,73.4,64.4,73,30.17,4.0,ESE,10.4,-,N/A,,Haze,110,2012-11-23 13:15:00
7:35 AM,73.4,64.4,73,30.17,9.0,ESE,10.4,-,N/A,,Mostly Cloudy,110,2012-11-23 13:35:00
7:55 AM,73.4,64.4,73,30.18,9.0,ESE,9.2,-,N/A,,Mostly Cloudy,110,2012-11-23 13:55:00
8:15 AM,75.2,64.4,69,30.19,8.0,ESE,9.2,-,N/A,,Mostly Cloudy,110,2012-11-23 14:15:00
8:35 AM,75.2,64.4,69,30.19,10.0,ESE,9.2,-,N/A,,Mostly Cloudy,110,2012-11-23 14:35:00
8:55 AM,75.2,64.4,69,30.20,9.0,ESE,10.4,-,N/A,,Mostly Cloudy,110,2012-11-23 14:55:00
9:15 AM,75.2,64.4,69,30.20,8.0,ESE,10.4,-,N/A,,Mostly Cloudy,110,2012-11-23 15:15:00
9:35 AM,75.2,64.4,69,30.21,9.0,ESE,10.4,-,N/A,,Mostly Cloudy,110,2012-11-23 15:35:00
9:55 AM,75.2,64.4,69,30.22,9.0,ESE,10.4,-,N/A,,Mostly Cloudy,110,2012-11-23 15:55:00
10:15 AM,75.2,64.4,69,30.22,9.0,ESE,9.2,-,N/A,,Mostly Cloudy,110,2012-11-23 16:15:00
10:35 AM,75.2,64.4,69,30.22,9.0,ESE,9.2,-,N/A,,Overcast,120,2012-11-23 16:35:00
11:15 AM,75.2,64.4,69,30.22,9.0,SE,8.1,-,N/A,,Mostly Cloudy,130,2012-11-23 17:15:00
11:35 AM,75.2,62.6,65,30.22,9.0,SE,6.9,-,N/A,,Overcast,140,2012-11-23 17:35:00
11:55 AM,75.2,62.6,65,30.22,9.0,ESE,5.8,-,N/A,,Mostly Cloudy,120,2012-11-23 17:55:00
12:15 PM,75.2,66.2,73,30.22,7.0,East,3.5,-,N/A,,Mostly Cloudy,90,2012-11-23 18:15:00
12:35 PM,75.2,66.2,73,30.21,9.0,NE,3.5,-,N/A,,Mostly Cloudy,50,2012-11-23 18:35:00
12:55 PM,75.2,64.4,69,30.21,9.0,Calm,Calm,-,N/A,,Overcast,0,2012-11-23 18:55:00
1:15 PM,75.2,64.4,69,30.20,9.0,Calm,Calm,-,N/A,,Mostly Cloudy,0,2012-11-23 19:15:00
1:35 PM,75.2,64.4,69,30.19,9.0,NE,3.5,-,N/A,,Scattered Clouds,40,2012-11-23 19:35:00
1:55 PM,75.2,64.4,69,30.18,9.0,NE,3.5,-,N/A,,Clear,50,2012-11-23 19:55:00
2:15 PM,75.2,62.6,65,30.18,6.0,NE,3.5,-,N/A,,Haze,50,2012-11-23 20:15:00
2:35 PM,75.2,62.6,65,30.17,7.0,NE,4.6,-,N/A,,Mostly Cloudy,50,2012-11-23 20:35:00
2:55 PM,75.2,64.4,69,30.17,9.0,NE,5.8,-,N/A,,Mostly Cloudy,40,2012-11-23 20:55:00
3:15 PM,75.2,66.2,73,30.16,9.0,NE,5.8,-,N/A,,Scattered Clouds,40,2012-11-23 21:15:00
3:35 PM,75.2,64.4,69,30.15,6.0,NE,5.8,-,N/A,,Haze,50,2012-11-23 21:35:00
3:55 PM,75.2,64.4,69,30.15,9.0,NE,5.8,-,N/A,,Partly Cloudy,50,2012-11-23 21:55:00
4:15 PM,73.4,64.4,73,30.15,9.0,NE,6.9,-,N/A,,Clear,40,2012-11-23 22:15:00
4:35 PM,73.4,66.2,78,30.16,10.0,NNE,6.9,-,N/A,,Clear,30,2012-11-23 22:35:00
4:55 PM,75.2,62.6,65,30.17,9.0,NNE,6.9,-,N/A,,Clear,30,2012-11-23 22:55:00
5:15 PM,75.2,60.8,61,30.17,8.0,NE,6.9,-,N/A,,Scattered Clouds,40,2012-11-23 23:15:00
5:35 PM,75.2,62.6,65,30.18,9.0,NE,6.9,-,N/A,,Overcast,40,2012-11-23 23:35:00
5:55 PM,75.2,64.4,69,30.18,7.0,NNE,5.8,-,N/A,,Scattered Clouds,30,2012-11-23 23:55:00
6:15 PM,73.4,66.2,78,30.19,9.0,NNE,5.8,-,N/A,,Clear,20,2012-11-24 00:15:00
6:35 PM,73.4,64.4,73,30.19,9.0,NNE,6.9,-,N/A,,Clear,20,2012-11-24 00:35:00
6:55 PM,73.4,66.2,78,30.20,9.0,NNE,5.8,-,N/A,,Clear,20,2012-11-24 00:55:00
7:15 PM,73.4,66.2,78,30.21,10.0,NNE,6.9,-,N/A,,Clear,20,2012-11-24 01:15:00
7:35 PM,73.4,66.2,78,30.22,10.0,NNE,6.9,-,N/A,,Clear,20,2012-11-24 01:35:00
7:55 PM,73.4,66.2,78,30.23,9.0,NNE,5.8,-,N/A,,Mostly Cloudy,20,2012-11-24 01:55:00
8:15 PM,73.4,66.2,78,30.24,9.0,North,4.6,-,N/A,,Overcast,360,2012-11-24 02:15:00
8:35 PM,73.4,66.2,78,30.24,10.0,North,4.6,-,N/A,,Overcast,350,2012-11-24 02:35:00
8:55 PM,73.4,66.2,78,30.24,9.0,NNW,5.8,-,N/A,,Overcast,340,2012-11-24 02:55:00
9:15 PM,73.4,66.2,78,30.25,8.0,NNW,5.8,-,N/A,,Overcast,340,2012-11-24 03:15:00
9:35 PM,73.4,66.2,78,30.26,9.0,NW,12.7,-,N/A,,Overcast,320,2012-11-24 03:35:00
9:55 PM,73.4,66.2,78,30.25,10.0,NW,11.5,-,N/A,,Overcast,320,2012-11-24 03:55:00
10:15 PM,71.6,66.2,83,30.25,10.0,NNW,9.2,-,N/A,,Scattered Clouds,330,2012-11-24 04:15:00
10:55 PM,71.6,66.2,83,30.26,7.0,NNW,8.1,-,N/A,,Mostly Cloudy,340,2012-11-24 04:55:00
11:15 PM,71.6,66.2,83,30.25,8.0,North,12.7,-,N/A,,Mostly Cloudy,360,2012-11-24 05:15:00
11:35 PM,71.6,66.2,83,30.25,3.0,North,10.4,-,N/A,,Haze,10,2012-11-24 05:35:00
11:55 PM,71.6,66.2,83,30.25,6.0,North,10.4,-,N/A,,Haze,10,2012-11-24 05:55:00